Home > Time Zones > World Clock > Weather > Japan > Tsu > Past weeks

Flag Weather past 2 weeks in Tsu, Japan

Now
57 °F

Cool.


Feels Like: 55 °F
Forecast: 46 / 62 °F
Wind: 10 mph from Northwest

Location: Tsu

Current Time: Nov 26, 2014 at 8:20:01 PM

Latest Report: Nov 26, 2014 at 7:00 PM


Visibility: N/A

Pressure: 29.93 "Hg

Humidity: 73%

Dew point: 49 °F

Location of TsuLocation

Historic Weather in Tsu — Graph

°F

Tsu temperature yesterday

Maximum temperature yesterday: 56 °F (at 4:00 PM)
Minimum temperature yesterday: 52 °F (at 8:00 AM)
Average temperature yesterday: 54 °F

Past Weeks' High & Low Weather Summary

 TemperatureHumidityPressure
High68 °F (Nov 12, 1:00 PM)96% (Nov 26, 12:00 AM)30.37 "Hg (Nov 26, 12:00 AM)
Low40 °F (Nov 21, 7:00 AM)25% (Nov 13, 1:00 PM)29.75 "Hg (Nov 12, 3:00 PM)
Average54 °F62%30.13 "Hg
* Reported Nov 11 7:00 PM — Nov 26 7:00 PM, Tsu, Weather by CustomWeather, © 2014

Note: Actual official high and low records may vary slightly from our data, if they occured in-between our weather recording intervals... More about our weather records

Advertising

Tsu weather history for previous 24 hours

 ConditionsComfort  
Time TempWeatherWind HumidityBarometerVisibility
7:00 PM
Nov 26
57 °FCool.10 mph73%29.93 "HgN/A
6:00 PM57 °FCool.7 mph78%29.92 "HgN/A
5:00 PM57 °FCool.6 mph78%29.90 "HgN/A
4:00 PM58 °FCool.3 mph82%29.89 "HgN/A
3:00 PM58 °FOvercast.1 mph85%29.88 "Hg16 mi
2:00 PM57 °FCool.6 mph86%29.87 "HgN/A
1:00 PM57 °FCool.1 mph92%29.88 "HgN/A
11:00 AM56 °FCool.3 mph96%29.91 "HgN/A
10:00 AM56 °FCool.2 mph95%29.92 "HgN/A
9:00 AM55 °FLight rain. Overcast.3 mph96%29.93 "Hg3 mi
8:00 AM55 °FCool.2 mph96%29.91 "HgN/A
7:00 AM55 °FCool.1 mph96%29.90 "HgN/A
6:00 AM55 °FCool.5 mph96%29.88 "HgN/A
5:00 AM55 °FCool.1 mph96%29.87 "HgN/A
4:00 AM54 °FCool.6 mph96%29.86 "HgN/A
3:00 AM54 °FCool.2 mph96%29.86 "HgN/A
2:00 AM54 °FCool.2 mph96%29.88 "HgN/A
1:00 AM54 °FCool.5 mph95%29.88 "HgN/A
12:00 AM54 °FCool.5 mph96%29.88 "HgN/A
11:00 PM
Nov 25
54 °FCool.6 mph95%29.88 "HgN/A
10:00 PM55 °FCool.5 mph93%29.88 "HgN/A
9:00 PM55 °FLight rain. Overcast.3 mph93%29.88 "Hg4 mi
8:00 PM56 °FCool.3 mph92%29.87 "HgN/A
Weather by CustomWeather, © 2014

See weather overviewHow to use our weather pages